Location: Aurora Center
(43.5271°N, 98.5894°W)
Time: 00:46:28
(UTC-05:00)

BlueWalker 3 - Pass Details

Date: 25 June 2024
Orbit: 480 x 492 km, 53.2° (Epoch: 15 July)

Event Time Altitude Azimuth Distance (km) Brightness Sun altitude
Rises 23:19:50 0° 295° (WNW) 2,541 6.5 -16.1°
Reaches altitude 10° 23:22:32 10° 315° (NW) 1,660 5.8 -16.3°
Maximum altitude 23:25:11 18° 0° (N) 1,236 4.7 -16.6°
Drops below altitude 10° 23:27:50 10° 46° (NE) 1,657 4.7 -16.8°
Sets 23:30:32 0° 65° (ENE) 2,536 5.5 -17.1°
